Altona, Illinois
Current Conditions -  °F | °C
As of 3:55 AM on Saturday 01 Nov 2014 (Local Time) from KGBG Reporting Station
Clear Clear  
Wind Chill: 15°   Ceiling: Unl
Heat Index: 22°   Visibility: 10mi
Dew Point: 18°   Wind: 5mph
Humidity: 87%   Direction: 310°NW
Pressure: 30.45"   Gusts: NA
Location:  41.11°N, 90.16°W
Report Text: KGBG 010855Z AUTO 31004KT 10SM CLR M06/M08 A3045 RMK AO2 T10571076
Loading
Personal Weather Stations






























Interactive Weather Map
Tropical Storm Tracking
New forecast layout! Learn more

10-Day Weather Forecast

Advertisements
Track Severe Weather on mobile